Location: ???????
(55.4362°N, 38.1183°E)
Time: 01:57:15
(UTC+00:00)

METEOR M2 - Pass Details

Date: 01 December 2021
Orbit: 818 x 827 km, 98.4° (Epoch: 28 January)

Event Time Altitude Azimuth Distance (km) Brightness Sun altitude
Rises 03:48:50 0° 22° (NNE) 3,373 ? -13.4°
Reaches altitude 10° 03:51:41 10° 37° (NE) 2,434 ? -13.0°
Maximum altitude 03:55:56 23° 89° (E) 1,679 ? -12.5°
Drops below altitude 10° 04:00:09 10° 141° (SE) 2,416 ? -11.9°
Sets 04:02:58 0° 156° (SSE) 3,342 ? -11.5°
